Regional Weather Roundup
Issued by NWS

Home | Current Version | Previous Version | Text Only | Print | Product List | Glossary Off
Versions: 1 2 3 4 5 6 7 8 9 10 11 12 13 14 15 16 17 18 19 20 21 22 23 24 25 26 27 28 29 30 31 32 33 34 35 36 37 38 39 40 41 42 43 44 45 46 47 48 49 50

350
ASUS43 KMPX 280810
RWRMN
WEATHER ROUNDUP FOR MINNESOTA
NATIONAL WEATHER SERVICE TWIN CITIES/CHANHASSEN MN
300 AM CDT SUN MAY 28 2017


NOTE: "FAIR" INDICATES FEW OR NO CLOUDS BELOW 12,000 FEET WITH NO
SIGNIFICANT WEATHER AND/OR OBSTRUCTIONS TO VISIBILITY. N/A MEANS
CURRENT SKY AND/OR WEATHER CONDITIONS ARE NOT AVAILABLE.

MNZ060>063-068>070-280900-
   Twin Cities Metro

CITY           SKY/WX    TMP DP  RH WIND       PRES   REMARKS
TWIN CITIES    MOCLDY    61  48  62 SW7       29.78F
ST PAUL        PTCLDY    59  50  72 CALM      29.78F
CRYSTAL        PTCLDY    59  46  62 S5        29.76F
BLAINE         PTCLDY    61  48  63 SW6       29.77S
LAKEVILLE      CLOUDY    57  46  67 CALM      29.79F
EDEN PRAIRIE   CLEAR     57  50  77 SW5       29.77F
SOUTH ST PAUL  PTCLDY    59  47  64 SW3       29.78F
LAKE ELMO      CLOUDY    57  50  77 S5        29.79F
$$
MNZ001>005-007-008-013>017-022>024-027-028-280900-
   Northwest Minnesota

CITY           SKY/WX    TMP DP  RH WIND       PRES   REMARKS
BEMIDJI        CLOUDY    51  48  90 S6        29.71R
HALLOCK        CLEAR     48  45  87 NW6       29.72R
ROSEAU         CLOUDY    55  46  71 W8        29.68S
WARROAD        CLOUDY    54  46  76 W5        29.68R
THIEF RVR FALL CLOUDY    51  48  89 W10       29.71F
CROOKSTON      LGT RAIN  50  50 100 W7        29.73F
FOSSTON        CLOUDY    48  48 100 W7        29.72F
DETROIT LAKES  CLEAR     50  46  87 NW8       29.75S
MOORHEAD       CLOUDY    52  46  82 NW10      29.77S
PARK RAPIDS    LGT RAIN  51  45  79 W9        29.71S
MAHNOMEN       CLOUDY    48  47  94 W9        29.74S
$$
MNZ006-009>011-018-025>026-280900-
   North Central Minnesota

CITY           SKY/WX    TMP DP  RH WIND       PRES   REMARKS
BAUDETTE       CLOUDY    52  45  77 SW8       29.66S
FLAG ISLAND    CLOUDY    57  46  67 NW12      29.64S
INTL FALLS     MOCLDY    50  45  83 CALM      29.66F
WASKISH        DRIZZLE   54  52  94 W8        29.69S
BIG FORK       MOCLDY    54  46  76 SW3       29.67S
LONGVILLE      CLOUDY    55  48  76 W6        29.69F
GRAND RAPIDS   CLOUDY    51  45  79 S3        29.71S
CRANE LAKE     CLOUDY    46  46 100 CALM      29.69F
COOK           PTCLDY    48  43  81 CALM      29.69F
WALKER         DRIZZLE   51  50  95 W7        29.69F
$$
MNZ012-019>021-037-280900-
   Northeast Minnesota

CITY           SKY/WX    TMP DP  RH WIND       PRES   REMARKS
DULUTH         PTCLDY    57  45  64 SW12      29.72F
ELY            CLOUDY    50  43  76 SE6       29.70F
HIBBING        CLOUDY    43  43 100 CALM      29.69F
EVELETH        CLEAR     43  40  91 CALM      29.71F
DULUTH HARBOR  MOCLDY    57  52  82 W7        29.72F
TWO HARBORS    MOCLDY    54  46  76 W3        29.70F
SILVER BAY     CLOUDY    50  46  87 CALM      29.70F
GRAND MARAIS     N/A     45  42  89 E3        29.70F
G MARAIS ARPRT CLOUDY    46  39  76 CALM      29.73F
$$
MNZ029>031-032-039>041-046>048-054>057-064-280900-
   West Central Minnesota

CITY           SKY/WX    TMP DP  RH WIND       PRES   REMARKS
FERGUS FALLS   CLEAR     48  48 100 W8        29.76S
WHEATON        CLEAR     54  46  76 W8        29.81S
MORRIS         CLEAR     52  48  87 W8        29.78R
ALEXANDRIA     CLEAR     53  47  79 W10       29.77R
ELBOW LAKE     FAIR      51  47  89 NW10      29.78S
WADENA         CLEAR     48  46  93 W7        29.73R
GLENWOOD       CLEAR     54  48  82 W12       29.77R
APPLETON       CLEAR     57  48  72 NW14      29.79R
BENSON         CLEAR     48  46  93 NW6       29.79R
ORTONVILLE     CLEAR     55  48  76 NW9G16    29.80R
MADISON        CLEAR     57  50  77 W9        29.79S
WILLMAR        FAIR      54  48  82 SW5       29.78S
$$
MNZ033>034-036-042>043-049>051-058-059-280900-
   Central Minnesota

CITY           SKY/WX    TMP DP  RH WIND       PRES   REMARKS
ST CLOUD       CLOUDY    58  47  66 W6        29.74F
SAUK CENTRE    FAIR      52  47  83 NW5       29.74F
PAYNESVILLE    CLOUDY    58  46  64 S5        29.75F
AITKIN         PTCLDY    57  45  62 SW6       29.69F
PINE RIVER     CLOUDY    55  46  71 W5        29.73F
BRAINERD       MOCLDY    56  46  69 SW5       29.72S
STAPLES        MOCLDY    54  46  76 W7        29.72S
LONG PRAIRIE   FAIR      54  45  71 SW6       29.75S
LITTLE FALLS   MOCLDY    55  45  67 CALM      29.73F
LITCHFIELD     CLOUDY    57  50  77 CALM      29.77F
BUFFALO        MOCLDY    59  47  65 CALM      29.78F
MAPLE LAKE     MOCLDY    59  49  70 CALM      29.77F
HUTCHINSON     MOCLDY    59  49  70 W3        29.79F
$$
MNZ037-044-045-052-053-280900-
   East Central Minnesota

CITY           SKY/WX    TMP DP  RH WIND       PRES   REMARKS
PRINCETON      PTCLDY    61  48  63 SW6       29.75F
MORA           CLOUDY    54  45  71 SW5       29.76S
CAMBRIDGE      CLOUDY    61  46  59 SW7       29.74F
RUSH CITY      CLOUDY    58  48  71 SW6       29.75F
MOOSE LAKE     MOCLDY    46  45  93 CALM      29.71F
HINCKLEY       PTSUNNY   54  52  94 S3        29.74F
CLOQUET        PTCLDY    54  43  66 S3        29.72F
MCGREGOR       CLOUDY    54  46  76 S3        29.72S
$$
MNZ071>073-080-081-089-090-097-098-280900-
   Southwest Minnesota

CITY           SKY/WX    TMP DP  RH WIND       PRES   REMARKS
MONTEVIDEO     PTCLDY    57  46  67 W3        29.78S
CANBY          CLEAR     58  49  72 SW12G17   29.81F
MARSHALL       CLEAR     58  50  75 W16       29.80S
REDWOOD FALLS  CLEAR     58  47  66 SW13      29.77F
OLIVIA         CLEAR     54  46  76 SW7       29.77F
PIPESTONE      CLEAR     52  46  82 W5        29.84S
WINDOM         CLEAR     55  50  82 SW8       29.82F
WORTHINGTON    CLEAR     55  49  80 SW14      29.84F
JACKSON        CLEAR     54  50  87 SW8       29.84F
TRACY          PTCLDY    57  51  78 SW14      29.80F
SLAYTON        CLEAR     55  48  78 SW15      29.82F
$$
MNZ065>067-074>077-082>085-091>093-280900-
   South Central Minnesota

CITY           SKY/WX    TMP DP  RH WIND       PRES   REMARKS
MANKATO        CLEAR     59  50  72 W12       29.81F
NEW ULM        MOCLDY    57  48  72 SW9       29.79F
ST JAMES       CLEAR     57  52  82 SW6       29.82F
FAIRMONT       CLOUDY    57  52  83 W13       29.83F
GLENCOE        PTCLDY    61  53  75 SW3       29.77F
FARIBAULT      CLOUDY    57  48  72 CALM      29.81F
OWATONNA       CLOUDY    55  48  76 S8        29.81F
WASECA         PTCLDY    54  46  76 SW5       29.82F
ALBERT LEA     CLOUDY    61  52  72 SW3       29.83F
$$
MNZ078>079-086>088-094>096-280900-
   Southeast Minnesota

CITY           SKY/WX    TMP DP  RH WIND       PRES   REMARKS
ROCHESTER      CLOUDY    57  51  80 SW9       29.83F
RED WING       CLOUDY    55  52  88 CALM      29.79F
STANTON        MOCLDY    58  48  68 S5        29.78F
DODGE CENTER   CLOUDY    55  48  76 SW7       29.82F
WINONA         MOCLDY    55  54  94 CALM      29.81S
AUSTIN         CLOUDY    55  48  76 CALM      29.83F
PRESTON        CLOUDY    56  48  75 W9        29.83F
$$
ABBREVIATIONS USED IN REMARKS
   TC - TEMPERATURES IN CELSIUS
  WCI - WIND CHILL INDEX
   HX - HEAT INDEX
  VSB - VISIBILITY
$$




USA.gov is the U.S. government's official web portal to all federal, state and local government web resources and services.